This is the latest recevied weather packets stored in our database for station/object OE6CBX-1. If no packets are shown the sender has not sent any weather packets the latest 10 day(s).
| Time | Temp. | Humidity | Pressure | Rain* | Wind** | Luminosity | Snow |
|---|---|---|---|---|---|---|---|
| 1777857465 | 12.22° C | 57% | 979.4 hPa | - | - | - | - |
| 1777856565 | 12.22° C | 57% | 979.4 hPa | - | - | - | - |
| 1777855665 | 12.78° C | 55% | 979.3 hPa | - | - | - | - |
| 1777854765 | 12.78° C | 54% | 979.4 hPa | - | - | - | - |
| 1777853865 | 12.78° C | 55% | 979.4 hPa | - | - | - | - |
| 1777852965 | 13.33° C | 54% | 979.4 hPa | - | - | - | - |
| 1777852065 | 13.89° C | 54% | 979.2 hPa | - | - | - | - |
| 1777851165 | 13.89° C | 53% | 979.3 hPa | - | - | - | - |
| 1777850264 | 14.44° C | 52% | 979.2 hPa | - | - | - | - |
| 1777849365 | 14.44° C | 51% | 979.2 hPa | - | - | - | - |
| 1777848464 | 14.44° C | 50% | 979.2 hPa | - | - | - | - |
| 1777847564 | 15° C | 50% | 979.2 hPa | - | - | - | - |
| 1777846664 | 15° C | 48% | 979.2 hPa | - | - | - | - |
| 1777845764 | 15.56° C | 48% | 979.2 hPa | - | - | - | - |
| 1777844864 | 15.56° C | 47% | 979.1 hPa | - | - | - | - |
| 1777843964 | 16.11° C | 46% | 979.1 hPa | - | - | - | - |
| 1777843064 | 16.11° C | 46% | 979.1 hPa | - | - | - | - |
| 1777842164 | 16.67° C | 45% | 979.1 hPa | - | - | - | - |
| 1777841264 | 17.22° C | 44% | 979.1 hPa | - | - | - | - |
| 1777840364 | 18.33° C | 39% | 979.1 hPa | - | - | - | - |
| 1777839464 | 18.89° C | 38% | 979 hPa | - | - | - | - |
| 1777838564 | 18.89° C | 38% | 979 hPa | - | - | - | - |
| 1777837664 | 19.44° C | 37% | 979.1 hPa | - | - | - | - |
| 1777836764 | 19.44° C | 37% | 979 hPa | - | - | - | - |
| 1777835864 | 19.44° C | 36% | 978.9 hPa | - | - | - | - |
* Rain since midnight (hover to see other rain measurements)
** Current wind speed in m/s (hover to see current wind gust speed)